Location: Les Coudrans
(46.1056°N, 1.1158°W)
Time: 21:07:27
(UTC+00:00)

USA 234 - Pass Details

Date: 03 March 2021
Orbit: 1102 x 1105 km, 123.0° (Epoch: 18 April)

Event Time Altitude Azimuth Distance (km) Brightness Sun altitude
Exits shadow 19:39:58 19° 58° (ENE) 2,356 4.6 -19.1°
Maximum altitude 19:44:51 68° 138° (SE) 1,182 3.2 -20.0°
Drops below altitude 10° 19:51:20 10° 221° (SW) 2,955 5.9 -21.1°
Sets 19:53:50 0° 224° (SW) 3,910 6.6 -21.5°
